Location: Santa Teresa Spring
(37.2333°N, 121.7000°W)
Time: 09:09:25
(UTC-07:00)

ISS - Visible Passes

Search period start: 01 September 2015 00:00
Search period end: 11 September 2015 00:00
Orbit: 400 x 402 km, 51.6° (Epoch: 01 September)

Date Brightness Start Highest point End Pass type
(mag) Time Alt. Az. Time Alt. Az. Time Alt. Az.
07 Sep -0.6 05:28:28 10° SSE 05:30:24 15° SE 05:32:25 10° E visible
08 Sep -3.3 06:10:01 10° SW 06:13:15 85° SE 06:16:32 10° NE visible
09 Sep -2.2 05:18:45 25° S 05:20:02 37° SE 05:23:05 10° ENE visible
10 Sep -0.6 04:27:59 16° ESE 04:27:59 16° ESE 04:29:14 10° E visible
10 Sep -2.6 06:00:36 14° WSW 06:03:07 38° NW 06:06:12 10° NE visible
